Regional Weather Roundup
Issued by NWS

Home | Current Version | Previous Version | Text Only | Print | Product List | Glossary On
Versions: 1 2 3 4 5 6 7 8 9 10 11 12 13 14 15 16 17 18 19 20 21 22 23 24 25 26 27 28 29 30 31 32 33 34 35 36 37 38 39 40 41 42 43 44 45 46 47 48 49 50
000
ASUS43 KBIS 250602
RWRND

NORTH DAKOTA REGIONAL WEATHER ROUNDUP
NATIONAL WEATHER SERVICE BISMARCK ND
1200 AM CST SUN FEB 25 2018

NOTE: "FAIR" INDICATES FEW OR NO CLOUDS BELOW 12,000 FEET WITH NO
SIGNIFICANT WEATHER AND/OR OBSTRUCTIONS TO VISIBILITY.


NDZ001>003-009>011-017-250700-
NORTHWEST NORTH DAKOTA

CITY           SKY/WX    TMP DP  RH WIND       PRES   REMARKS
WILLISTON      CLOUDY    23  18  81 W18       29.59S WCI   9
6HR MIN TEMP:  18; 6HR MAX TEMP:  23; 6HR PCP: TRACE;

MINOT          CLOUDY    21  14  74 SW9       29.52F WCI  11
MINOT AFB      CLOUDY    20  15  81 W8          N/A  WCI  10
$$

NDZ018>021-031>035-040>046-250700-
SOUTHWEST NORTH DAKOTA

CITY           SKY/WX    TMP DP  RH WIND       PRES   REMARKS
BISMARCK       PTCLDY     4   1  88 CALM      29.58F
6HR MIN TEMP:   4; 6HR MAX TEMP:  20;

DICKINSON      CLOUDY    18  13  80 W22       29.55S WCI   1
GARRISON         N/A     19  15  84 W13       29.54S WCI   6
6HR MIN TEMP:   7; 6HR MAX TEMP:  19;

HETTINGER ARPT CLEAR     12   5  73 W14       29.62R WCI  -3
$$

NDZ004>008-012>016-024-026-027-054-250700-
NORTHEAST NORTH DAKOTA

CITY           SKY/WX    TMP DP  RH WIND       PRES   REMARKS
GRAND FORKS    FOG        6   6 100 W5        29.55F VSB 3/4 WCI  -3
GRND FRKS AFB  CLOUDY    13  10  89 W6        29.55F WCI   4
DEVILS LAKE    FAIR      11   9  92 SW8       29.53F WCI  -1
$$

NDZ022-023-025-028>030-036>039-047>053-250700-
SOUTHEAST NORTH DAKOTA

CITY           SKY/WX    TMP DP  RH WIND       PRES   REMARKS
FARGO          FAIR      11   9  92 NW6       29.54F WCI   1
6HR MIN TEMP:  11; 6HR MAX TEMP:  19; 6HR PCP:  0.14;

JAMESTOWN      CLEAR     10   8  92 W9        29.53F WCI  -3
$$





USA.gov is the U.S. government's official web portal to all federal, state and local government web resources and services.